QPF
0.00 0.00 0.00 0.00 0.00 0.00 0.00 0.00 0.00 0.00 0.00 0.00 0.00 0.00 0.00 0.00 0.00 0.00 0.00 0.00 0.00 0.00 0.00 0.00 0.00 0.00 0.00 0.00 0.01 0.01 0.01 0.01 0.01 0.03 0.05 0.08 0.11 0.15 0.18 0.19 0.24 0.28 0.30 0.29
0.00 0.00 0.00 0.00 0.00 0.00 0.00 0.00 0.00 0.00 0.00 0.00 0.00 0.00 0.00 0.00 0.00 0.00 0.00 0.00 0.00 0.00 0.00 0.00 0.00 0.00 0.00 0.00 0.00 0.00 0.00 0.00 0.00 0.01 0.02 0.03 0.06 0.10 0.13 0.15 0.18 0.21 0.24 0.25
0.00 0.00 0.00 0.00 0.00 0.00 0.00 0.00 0.00 0.00 0.00 0.00 0.00 0.00 0.00 0.00 0.00 0.00 0.00 0.00 0.00 0.00 0.00 0.00 0.00 0.00 0.00 0.00 0.00 0.00 0.00 0.00 0.00 0.00 0.01 0.01 0.02 0.04 0.07 0.08 0.11 0.18 0.23 0.24
0.00 0.00 0.00 0.00 0.00 0.00 0.00 0.00 0.00 0.00 0.00 0.00 0.00 0.00 0.00 0.00 0.00 0.00 0.00 0.00 0.00 0.00 0.00 0.00 0.00 0.00 0.00 0.00 0.00 0.00 0.00 0.00 0.01 0.01 0.01 0.01 0.01 0.02 0.04 0.06 0.09 0.13 0.19 0.23
0.00 0.00 0.00 0.00 0.00 0.00 0.00 0.00 0.00 0.00 0.00 0.00 0.00 0.00 0.00 0.00 0.00 0.00 0.00 0.00 0.00 0.00 0.00 0.01 0.01 0.01 0.01 0.01 0.01 0.01 0.01 0.01 0.02 0.01 0.01 0.02 0.03 0.02 0.03 0.05 0.08 0.11 0.14 0.17
0.00 0.00 0.00 0.00 0.00 0.00 0.00 0.00 0.00 0.00 0.00 0.00 0.00 0.00 0.00 0.00 0.00 0.01 0.00 0.00 0.00 0.01 0.01 0.01 0.01 0.01 0.02 0.02 0.01 0.02 0.02 0.03 0.03 0.03 0.03 0.03 0.03 0.02 0.03 0.04 0.07 0.08 0.10 0.11
0.00 0.00 0.00 0.00 0.00 0.00 0.00 0.00 0.00 0.00 0.00 0.00 0.00 0.00 0.00 0.00 0.00 0.00 0.00 0.00 0.01 0.01 0.01 0.01 0.02 0.02 0.04 0.03 0.03 0.04 0.05 0.05 0.05 0.05 0.05 0.04 0.04 0.04 0.04 0.05 0.06 0.08 0.07 0.06
0.00 0.00 0.00 0.00 0.00 0.00 0.00 0.00 0.00 0.00 0.00 0.00 0.00 0.00 0.00 0.00 0.00 0.00 0.00 0.00 0.01 0.01 0.01 0.02 0.03 0.04 0.05 0.04 0.04 0.06 0.06 0.07 0.08 0.11 0.11 0.08 0.07 0.06 0.06 0.06 0.06 0.05 0.06 0.05
0.00 0.00 0.00 0.00 0.00 0.00 0.00 0.00 0.00 0.00 0.00 0.00 0.00 0.00 0.00 0.00 0.00 0.00 0.00 0.00 0.01 0.01 0.02 0.02 0.03 0.05 0.07 0.09 0.07 0.07 0.08 0.11 0.13 0.13 0.12 0.09 0.07 0.07 0.08 0.08 0.07 0.06 0.06 0.05
0.00 0.00 0.00 0.00 0.00 0.00 0.00 0.00 0.00 0.00 0.00 0.00 0.00 0.00 0.00 0.00 0.00 0.00 0.00 0.00 0.01 0.01 0.01 0.02 0.03 0.05 0.07 0.11 0.12 0.10 0.11 0.12 0.13 0.13 0.14 0.12 0.08 0.07 0.07 0.08 0.09 0.07 0.06 0.05
0.00 0.00 0.00 0.00 0.00 0.00 0.00 0.00 0.00 0.00 0.00 0.00 0.00 0.00 0.00 0.00 0.00 0.00 0.01 0.00 0.00 0.01 0.01 0.01 0.02 0.03 0.05 0.09 0.10 0.09 0.11 0.12 0.12 0.10 0.13 0.13 0.10 0.09 0.08 0.07 0.08 0.06 0.06 0.06
0.00 0.00 0.00 0.00 0.00 0.00 0.00 0.00 0.00 0.00 0.00 0.00 0.00 0.00 0.00 0.00 0.00 0.00 0.01 0.00 0.00 0.00 0.01 0.01 0.02 0.02 0.03 0.06 0.08 0.05 0.05 0.07 0.10 0.11 0.11 0.11 0.12 0.10 0.10 0.07 0.06 0.06 0.05 0.04
0.00 0.00 0.00 0.00 0.00 0.00 0.00 0.00 0.00 0.00 0.00 0.00 0.00 0.00 0.00 0.00 0.00 0.00 0.00 0.00 0.00 0.00 0.01 0.01 0.01 0.01 0.02 0.04 0.06 0.06 0.03 0.03 0.05 0.09 0.11 0.10 0.11 0.12 0.09 0.07 0.05 0.04 0.05 0.06
0.00 0.00 0.00 0.00 0.00 0.00 0.00 0.00 0.00 0.00 0.00 0.00 0.00 0.00 0.00 0.00 0.00 0.00 0.00 0.00 0.00 0.00 0.00 0.00 0.01 0.01 0.01 0.02 0.03 0.05 0.05 0.03 0.02 0.05 0.08 0.08 0.07 0.06 0.04 0.04 0.04 0.04 0.04 0.06
0.00 0.00 0.00 0.00 0.00 0.00 0.00 0.00 0.00 0.00 0.00 0.00 0.00 0.00 0.00 0.00 0.00 0.00 0.00 0.00 0.00 0.00 0.00 0.00 0.00 0.00 0.01 0.01 0.01 0.01 0.04 0.03 0.01 0.02 0.03 0.03 0.03 0.03 0.03 0.03 0.03 0.04 0.03 0.03
0.00 0.00 0.00 0.00 0.00 0.00 0.00 0.00 0.00 0.00 0.00 0.00 0.00 0.00 0.00 0.00 0.00 0.00 0.00 0.00 0.00 0.00 0.00 0.00 0.00 0.00 0.00 0.00 0.00 0.01 0.01 0.01 0.01 0.01 0.01 0.02 0.03 0.03 0.03 0.02 0.01 0.01 0.02 0.02
0.00 0.00 0.00 0.00 0.00 0.00 0.00 0.00 0.00 0.00 0.00 0.00 0.00 0.00 0.00 0.00 0.00 0.00 0.00 0.00 0.00 0.00 0.00 0.00 0.00 0.00 0.00 0.00 0.00 0.00 0.00 0.00 0.01 0.01 0.00 0.01 0.01 0.01 0.01 0.01 0.01 0.01 0.01 0.01
0.00 0.00 0.00 0.00 0.00 0.00 0.00 0.00 0.00 0.00 0.00 0.00 0.00 0.00 0.00 0.00 0.00 0.00 0.00 0.00 0.00 0.00 0.00 0.00 0.00 0.00 0.00 0.00 0.00 0.00 0.00 0.00 0.00 0.00 0.00 0.00 0.00 0.00 0.00 0.00 0.01 0.01 0.01 0.01
0.00 0.00 0.00 0.00 0.00 0.00 0.00 0.00 0.00 0.00 0.00 0.00 0.00 0.00 0.00 0.00 0.00 0.00 0.00 0.00 0.00 0.00 0.00 0.00 0.00 0.00 0.00 0.00 0.00 0.00 0.00 0.00 0.00 0.00 0.00 0.00 0.00 0.00 0.00 0.00 0.00 0.00 0.01 0.01
0.00 0.00 0.00 0.00 0.00 0.00 0.00 0.00 0.00 0.00 0.00 0.00 0.00 0.00 0.00 0.00 0.00 0.00 0.00 0.00 0.00 0.00 0.00 0.00 0.00 0.00 0.00 0.00 0.00 0.00 0.00 0.00 0.00 0.00 0.00 0.00 0.00 0.00 0.00 0.00 0.00 0.00 0.00 0.00
0.00 0.00 0.00 0.00 0.00 0.00 0.00 0.00 0.00 0.00 0.00 0.00 0.00 0.00 0.00 0.00 0.00 0.00 0.00 0.00 0.00 0.00 0.00 0.00 0.00 0.00 0.00 0.00 0.00 0.00 0.00 0.00 0.00 0.00 0.00 0.00 0.00 0.00 0.00 0.00 0.00 0.00 0.00 0.00
0.00 0.00 0.00 0.00 0.00 0.00 0.00 0.00 0.00 0.00 0.00 0.00 0.00 0.00 0.00 0.00 0.00 0.00 0.00 0.00 0.00 0.00 0.00 0.00 0.00 0.00 0.00 0.00 0.00 0.00 0.00 0.00 0.00 0.00 0.00 0.00 0.00 0.00 0.00 0.00 0.00 0.00 0.00 0.00
0.00 0.00 0.00 0.00 0.00 0.00 0.00 0.00 0.00 0.00 0.00 0.00 0.00 0.00 0.00 0.00 0.00 0.00 0.00 0.00 0.00 0.00 0.00 0.00 0.00 0.00 0.00 0.00 0.00 0.00 0.00 0.00 0.00 0.00 0.00 0.00 0.00 0.00 0.00 0.00 0.00 0.00 0.00 0.00
0.00 0.00 0.00 0.00 0.00 0.00 0.00 0.00 0.00 0.00 0.00 0.00 0.00 0.00 0.00 0.00 0.00 0.00 0.00 0.00 0.00 0.00 0.00 0.00 0.00 0.00 0.00 0.00 0.00 0.00 0.00 0.00 0.00 0.00 0.00 0.00 0.00 0.00 0.00 0.00 0.00 0.00 0.00 0.00
0.00 0.00 0.00 0.00 0.00 0.00 0.00 0.00 0.00 0.00 0.00 0.00 0.00 0.00 0.00 0.00 0.00 0.00 0.00 0.00 0.00 0.00 0.00 0.00 0.00 0.00 0.00 0.00 0.00 0.00 0.00 0.00 0.00 0.00 0.00 0.00 0.00 0.00 0.00 0.00 0.00 0.00 0.00 0.00
0.00 0.00 0.00 0.00 0.00 0.00 0.00 0.00 0.00 0.00 0.00 0.00 0.00 0.00 0.00 0.00 0.00 0.00 0.00 0.00 0.00 0.00 0.00 0.00 0.00 0.00 0.00 0.00 0.00 0.00 0.00 0.00 0.00 0.00 0.00 0.00 0.00 0.00 0.00 0.00 0.00 0.00 0.00 0.00
MSLP
1016.01 1016.83 1017.57 1018.21 1018.78 1019.31 1019.86 1020.44 1021.08 1021.76 1022.43 1023.03 1023.49 1023.77 1023.83 1023.64 1023.26 1022.72 1022.09 1021.43 1020.79 1020.20 1019.67 1019.19 1018.73 1018.27 1017.77 1017.24 1016.69 1016.14 1015.62 1015.17 1014.81 1014.56 1014.40 1014.32 1014.28 1014.25 1014.21 1014.15 1014.07 1013.99 1013.95 1013.96
1017.36 1018.14 1018.80 1019.34 1019.79 1020.20 1020.60 1021.06 1021.58 1022.15 1022.74 1023.27 1023.69 1023.94 1023.98 1023.80 1023.42 1022.89 1022.27 1021.61 1020.96 1020.35 1019.79 1019.27 1018.77 1018.26 1017.73 1017.18 1016.63 1016.08 1015.59 1015.17 1014.84 1014.60 1014.44 1014.33 1014.23 1014.11 1013.97 1013.80 1013.62 1013.46 1013.37 1013.39
1018.61 1019.33 1019.90 1020.34 1020.67 1020.95 1021.23 1021.56 1021.97 1022.44 1022.94 1023.42 1023.80 1024.05 1024.10 1023.95 1023.62 1023.14 1022.56 1021.92 1021.29 1020.67 1020.09 1019.53 1018.98 1018.43 1017.86 1017.29 1016.73 1016.19 1015.72 1015.33 1015.02 1014.79 1014.60 1014.43 1014.24 1014.02 1013.75 1013.46 1013.16 1012.92 1012.78 1012.78
1019.64 1020.27 1020.75 1021.08 1021.31 1021.48 1021.66 1021.90 1022.21 1022.60 1023.03 1023.46 1023.83 1024.07 1024.16 1024.06 1023.80 1023.39 1022.87 1022.30 1021.69 1021.09 1020.50 1019.91 1019.32 1018.73 1018.14 1017.54 1016.98 1016.46 1016.00 1015.63 1015.32 1015.07 1014.85 1014.61 1014.33 1013.99 1013.59 1013.17 1012.77 1012.44 1012.23 1012.20
1020.39 1020.92 1021.31 1021.55 1021.69 1021.79 1021.90 1022.07 1022.32 1022.64 1023.03 1023.42 1023.77 1024.02 1024.14 1024.10 1023.91 1023.58 1023.15 1022.64 1022.09 1021.51 1020.93 1020.33 1019.72 1019.11 1018.50 1017.90 1017.33 1016.82 1016.38 1016.01 1015.70 1015.43 1015.15 1014.84 1014.47 1014.02 1013.51 1012.98 1012.47 1012.06 1011.79 1011.72
1020.87 1021.30 1021.59 1021.76 1021.86 1021.92 1022.00 1022.13 1022.35 1022.64 1022.99 1023.35 1023.69 1023.94 1024.08 1024.09 1023.95 1023.69 1023.33 1022.89 1022.40 1021.87 1021.31 1020.73 1020.13 1019.51 1018.90 1018.30 1017.73 1017.23 1016.79 1016.42 1016.09 1015.79 1015.47 1015.10 1014.65 1014.12 1013.52 1012.91 1012.32 1011.84 1011.52 1011.40
1021.15 1021.47 1021.69 1021.82 1021.89 1021.95 1022.03 1022.18 1022.39 1022.67 1023.00 1023.34 1023.65 1023.89 1024.03 1024.05 1023.95 1023.74 1023.43 1023.06 1022.62 1022.14 1021.62 1021.07 1020.49 1019.89 1019.29 1018.70 1018.15 1017.64 1017.20 1016.81 1016.47 1016.13 1015.77 1015.35 1014.85 1014.27 1013.62 1012.96 1012.34 1011.81 1011.45 1011.28
1021.30 1021.54 1021.71 1021.82 1021.90 1021.99 1022.11 1022.29 1022.52 1022.81 1023.13 1023.45 1023.72 1023.93 1024.04 1024.05 1023.95 1023.75 1023.48 1023.14 1022.75 1022.31 1021.84 1021.34 1020.80 1020.23 1019.66 1019.08 1018.54 1018.03 1017.58 1017.18 1016.80 1016.43 1016.04 1015.59 1015.07 1014.47 1013.81 1013.14 1012.51 1011.98 1011.59 1011.38
1021.42 1021.60 1021.73 1021.85 1021.96 1022.10 1022.28 1022.51 1022.79 1023.10 1023.41 1023.69 1023.93 1024.08 1024.15 1024.11 1023.98 1023.77 1023.50 1023.17 1022.81 1022.42 1021.99 1021.54 1021.05 1020.52 1019.98 1019.44 1018.90 1018.40 1017.93 1017.50 1017.09 1016.70 1016.28 1015.82 1015.30 1014.72 1014.09 1013.45 1012.84 1012.32 1011.92 1011.68
1021.53 1021.67 1021.81 1021.95 1022.12 1022.32 1022.57 1022.86 1023.17 1023.50 1023.80 1024.06 1024.24 1024.33 1024.33 1024.23 1024.05 1023.80 1023.51 1023.18 1022.84 1022.47 1022.09 1021.68 1021.24 1020.77 1020.27 1019.75 1019.23 1018.73 1018.24 1017.79 1017.36 1016.94 1016.51 1016.06 1015.56 1015.01 1014.44 1013.85 1013.29 1012.80 1012.42 1012.17
1021.64 1021.79 1021.94 1022.12 1022.34 1022.60 1022.91 1023.25 1023.59 1023.93 1024.22 1024.44 1024.57 1024.60 1024.53 1024.37 1024.13 1023.84 1023.51 1023.17 1022.83 1022.49 1022.14 1021.77 1021.38 1020.96 1020.51 1020.03 1019.53 1019.03 1018.55 1018.08 1017.63 1017.20 1016.77 1016.33 1015.87 1015.37 1014.86 1014.34 1013.85 1013.41 1013.04 1012.79
1021.72 1021.89 1022.08 1022.30 1022.57 1022.87 1023.22 1023.58 1023.94 1024.27 1024.54 1024.72 1024.81 1024.79 1024.67 1024.45 1024.16 1023.83 1023.48 1023.13 1022.78 1022.45 1022.13 1021.80 1021.46 1021.09 1020.68 1020.24 1019.78 1019.31 1018.83 1018.37 1017.92 1017.49 1017.07 1016.65 1016.23 1015.79 1015.35 1014.90 1014.47 1014.08 1013.75 1013.49
1021.76 1021.96 1022.19 1022.44 1022.73 1023.05 1023.40 1023.75 1024.10 1024.40 1024.64 1024.80 1024.86 1024.80 1024.65 1024.41 1024.10 1023.75 1023.39 1023.03 1022.68 1022.36 1022.06 1021.76 1021.46 1021.14 1020.78 1020.40 1019.98 1019.54 1019.10 1018.66 1018.23 1017.82 1017.42 1017.04 1016.66 1016.27 1015.89 1015.50 1015.13 1014.78 1014.48 1014.23
1021.75 1021.99 1022.23 1022.50 1022.78 1023.08 1023.39 1023.71 1024.01 1024.27 1024.47 1024.60 1024.63 1024.57 1024.42 1024.19 1023.89 1023.55 1023.20 1022.85 1022.52 1022.21 1021.93 1021.66 1021.39 1021.10 1020.80 1020.47 1020.11 1019.73 1019.34 1018.94 1018.56 1018.18 1017.83 1017.48 1017.14 1016.81 1016.47 1016.13 1015.81 1015.50 1015.21 1014.97
1021.71 1021.98 1022.23 1022.47 1022.72 1022.96 1023.20 1023.43 1023.66 1023.85 1024.00 1024.10 1024.14 1024.09 1023.98 1023.79 1023.54 1023.24 1022.93 1022.61 1022.30 1022.01 1021.74 1021.48 1021.24 1020.99 1020.73 1020.46 1020.16 1019.85 1019.53 1019.21 1018.88 1018.57 1018.26 1017.96 1017.67 1017.37 1017.07 1016.77 1016.47 1016.19 1015.92 1015.68
1021.70 1021.97 1022.20 1022.40 1022.57 1022.72 1022.85 1022.97 1023.09 1023.20 1023.30 1023.38 1023.42 1023.41 1023.35 1023.24 1023.07 1022.85 1022.60 1022.34 1022.06 1021.79 1021.53 1021.28 1021.05 1020.83 1020.60 1020.38 1020.15 1019.92 1019.68 1019.44 1019.19 1018.95 1018.71 1018.46 1018.21 1017.95 1017.68 1017.40 1017.12 1016.84 1016.58 1016.34
1021.74 1021.99 1022.19 1022.32 1022.39 1022.41 1022.42 1022.41 1022.41 1022.42 1022.46 1022.51 1022.56 1022.61 1022.63 1022.61 1022.54 1022.43 1022.26 1022.06 1021.83 1021.58 1021.33 1021.09 1020.86 1020.65 1020.45 1020.27 1020.10 1019.94 1019.79 1019.64 1019.48 1019.31 1019.14 1018.95 1018.74 1018.51 1018.26 1018.00 1017.73 1017.45 1017.19 1016.95
1021.83 1022.06 1022.20 1022.24 1022.20 1022.09 1021.95 1021.80 1021.68 1021.60 1021.57 1021.60 1021.67 1021.77 1021.88 1021.97 1022.02 1022.01 1021.94 1021.82 1021.64 1021.42 1021.18 1020.94 1020.70 1020.49 1020.31 1020.16 1020.05 1019.95 1019.88 1019.81 1019.74 1019.65 1019.55 1019.41 1019.25 1019.05 1018.82 1018.56 1018.29 1018.02 1017.75 1017.51
1021.93 1022.12 1022.18 1022.13 1021.98 1021.75 1021.48 1021.21 1020.97 1020.81 1020.72 1020.74 1020.83 1020.99 1021.18 1021.37 1021.53 1021.64 1021.67 1021.62 1021.50 1021.32 1021.09 1020.85 1020.61 1020.40 1020.23 1020.10 1020.02 1019.97 1019.96 1019.97 1019.97 1019.96 1019.92 1019.84 1019.71 1019.54 1019.32 1019.08 1018.81 1018.54 1018.27 1018.02
1021.94 1022.07 1022.07 1021.94 1021.69 1021.36 1020.99 1020.62 1020.30 1020.07 1019.95 1019.96 1020.07 1020.28 1020.55 1020.84 1021.10 1021.31 1021.43 1021.47 1021.40 1021.26 1021.06 1020.82 1020.58 1020.37 1020.20 1020.08 1020.03 1020.03 1020.06 1020.12 1020.19 1020.23 1020.25 1020.21 1020.12 1019.98 1019.78 1019.55 1019.29 1019.02 1018.75 1018.51
1021.75 1021.82 1021.75 1021.55 1021.24 1020.85 1020.42 1020.00 1019.65 1019.39 1019.26 1019.27 1019.41 1019.66 1019.99 1020.35 1020.70 1020.99 1021.20 1021.31 1021.30 1021.21 1021.03 1020.82 1020.59 1020.39 1020.22 1020.12 1020.08 1020.11 1020.18 1020.28 1020.39 1020.48 1020.53 1020.53 1020.48 1020.36 1020.18 1019.96 1019.72 1019.47 1019.22 1018.99
1021.26 1021.27 1021.15 1020.91 1020.58 1020.17 1019.73 1019.32 1018.97 1018.72 1018.61 1018.65 1018.82 1019.11 1019.49 1019.90 1020.31 1020.66 1020.93 1021.10 1021.16 1021.11 1020.98 1020.80 1020.60 1020.41 1020.27 1020.18 1020.16 1020.20 1020.30 1020.43 1020.56 1020.68 1020.76 1020.79 1020.76 1020.67 1020.52 1020.33 1020.11 1019.88 1019.65 1019.45
1020.44 1020.39 1020.23 1019.98 1019.66 1019.28 1018.89 1018.53 1018.24 1018.06 1018.00 1018.07 1018.29 1018.61 1019.02 1019.46 1019.90 1020.30 1020.61 1020.83 1020.93 1020.93 1020.85 1020.72 1020.56 1020.40 1020.29 1020.22 1020.22 1020.28 1020.39 1020.54 1020.69 1020.82 1020.93 1020.98 1020.97 1020.90 1020.78 1020.62 1020.44 1020.24 1020.06 1019.88
1019.33 1019.22 1019.04 1018.80 1018.52 1018.22 1017.92 1017.67 1017.48 1017.39 1017.41 1017.55 1017.80 1018.15 1018.58 1019.03 1019.48 1019.89 1020.23 1020.47 1020.61 1020.66 1020.63 1020.55 1020.44 1020.33 1020.25 1020.22 1020.24 1020.32 1020.44 1020.59 1020.75 1020.89 1021.00 1021.06 1021.07 1021.03 1020.95 1020.82 1020.68 1020.54 1020.40 1020.27
1018.04 1017.87 1017.68 1017.47 1017.26 1017.06 1016.89 1016.77 1016.71 1016.74 1016.86 1017.07 1017.38 1017.76 1018.18 1018.63 1019.07 1019.47 1019.80 1020.06 1020.23 1020.31 1020.33 1020.30 1020.24 1020.18 1020.14 1020.14 1020.19 1020.27 1020.40 1020.55 1020.71 1020.85 1020.96 1021.04 1021.07 1021.05 1020.99 1020.91 1020.82 1020.73 1020.64 1020.57
1016.73 1016.51 1016.31 1016.14 1016.01 1015.92 1015.88 1015.90 1015.99 1016.15 1016.38 1016.67 1017.03 1017.43 1017.85 1018.29 1018.70 1019.07 1019.38 1019.63 1019.81 1019.91 1019.97 1019.97 1019.96 1019.95 1019.95 1019.98 1020.04 1020.14 1020.27 1020.41 1020.56 1020.69 1020.80 1020.88 1020.92 1020.93 1020.91 1020.87 1020.82 1020.78 1020.75 1020.73
Thickness
5779 5770 5754 5751 5755 5755 5750 5741 5729 5715 5711 5707 5696 5687 5686 5688 5688 5688 5689 5691 5692 5693 5697 5700 5702 5704 5707 5709 5711 5713 5715 5718 5720 5723 5726 5729 5732 5735 5738 5740 5740 5741 5742 5742
5765 5747 5746 5750 5749 5747 5740 5730 5717 5704 5704 5699 5688 5682 5682 5681 5678 5677 5678 5680 5682 5683 5687 5689 5691 5694 5695 5697 5699 5702 5704 5707 5709 5711 5714 5718 5722 5726 5730 5733 5734 5735 5736 5737
5750 5739 5743 5742 5738 5734 5726 5720 5712 5701 5692 5692 5685 5676 5676 5676 5675 5673 5672 5672 5673 5672 5674 5677 5679 5682 5684 5686 5688 5691 5693 5696 5699 5701 5704 5708 5712 5715 5720 5724 5727 5730 5731 5733
5739 5736 5735 5732 5724 5724 5713 5709 5705 5698 5693 5686 5681 5676 5667 5667 5665 5664 5663 5663 5663 5663 5665 5666 5668 5670 5672 5675 5677 5680 5682 5685 5688 5691 5693 5696 5698 5703 5709 5714 5720 5723 5725 5727
5728 5727 5727 5720 5713 5713 5707 5704 5702 5697 5692 5683 5677 5674 5664 5663 5654 5653 5654 5654 5654 5655 5656 5656 5658 5660 5662 5665 5666 5669 5672 5674 5677 5680 5682 5685 5689 5693 5699 5705 5710 5714 5718 5720
5725 5724 5721 5714 5711 5707 5705 5700 5695 5693 5690 5674 5665 5663 5652 5649 5643 5644 5647 5647 5648 5648 5648 5648 5650 5651 5653 5655 5657 5659 5661 5662 5665 5669 5672 5676 5679 5683 5688 5694 5699 5704 5709 5712
5718 5716 5716 5714 5709 5706 5705 5697 5689 5683 5677 5667 5659 5654 5642 5643 5643 5641 5640 5641 5642 5642 5642 5642 5642 5643 5644 5646 5647 5649 5651 5652 5655 5659 5662 5666 5670 5674 5679 5684 5690 5695 5699 5703
5716 5706 5704 5704 5699 5696 5694 5694 5685 5679 5676 5664 5654 5647 5643 5644 5643 5642 5641 5639 5638 5638 5638 5637 5637 5637 5637 5638 5640 5641 5643 5644 5646 5650 5654 5658 5662 5667 5671 5676 5682 5687 5691 5694
5720 5702 5700 5697 5697 5696 5692 5688 5684 5681 5672 5664 5656 5648 5646 5646 5642 5639 5637 5636 5635 5634 5634 5634 5634 5633 5633 5633 5634 5635 5637 5638 5641 5644 5647 5652 5656 5660 5665 5669 5674 5679 5682 5686
5724 5703 5696 5696 5698 5689 5689 5683 5682 5677 5666 5662 5652 5646 5641 5638 5636 5635 5635 5634 5634 5633 5633 5632 5631 5630 5630 5631 5632 5633 5634 5634 5636 5640 5643 5647 5650 5654 5658 5663 5666 5670 5675 5679
5721 5710 5695 5695 5687 5682 5683 5679 5675 5671 5666 5661 5650 5644 5644 5638 5636 5634 5635 5635 5634 5633 5632 5631 5630 5630 5630 5630 5631 5632 5633 5633 5635 5637 5640 5643 5646 5649 5653 5656 5659 5664 5668 5672
5715 5715 5699 5689 5685 5683 5680 5674 5673 5670 5661 5656 5652 5643 5648 5642 5640 5638 5636 5637 5636 5635 5635 5634 5632 5632 5631 5631 5632 5632 5633 5633 5634 5636 5638 5640 5643 5645 5649 5651 5654 5658 5661 5665
5714 5711 5697 5688 5683 5681 5677 5670 5667 5668 5665 5657 5649 5644 5650 5647 5644 5642 5639 5639 5639 5639 5638 5637 5635 5634 5633 5633 5632 5633 5633 5633 5634 5635 5637 5639 5641 5642 5644 5646 5649 5652 5655 5658
5716 5711 5703 5694 5690 5686 5676 5669 5666 5667 5667 5658 5652 5649 5650 5648 5645 5644 5643 5642 5643 5643 5642 5640 5639 5638 5637 5636 5635 5635 5635 5635 5635 5636 5636 5637 5638 5639 5641 5642 5645 5647 5649 5651
5719 5709 5701 5695 5690 5686 5680 5674 5669 5667 5667 5663 5658 5653 5654 5653 5649 5648 5647 5646 5646 5645 5645 5644 5643 5642 5641 5640 5640 5638 5638 5637 5637 5637 5637 5636 5638 5638 5639 5640 5641 5642 5643 5645
5719 5709 5703 5693 5690 5687 5682 5679 5674 5670 5667 5665 5661 5659 5665 5661 5657 5654 5653 5650 5649 5648 5648 5648 5648 5646 5645 5644 5643 5642 5641 5640 5639 5638 5637 5636 5637 5637 5637 5637 5637 5637 5637 5638
5719 5713 5704 5700 5692 5688 5688 5694 5684 5680 5679 5674 5668 5671 5670 5664 5660 5659 5658 5655 5654 5653 5653 5652 5652 5651 5650 5649 5647 5645 5644 5643 5641 5639 5638 5636 5636 5635 5634 5634 5633 5633 5632 5632
5720 5714 5708 5703 5695 5687 5705 5706 5700 5691 5688 5686 5682 5679 5675 5671 5669 5667 5665 5662 5661 5659 5658 5658 5658 5656 5656 5654 5652 5650 5648 5646 5643 5640 5638 5636 5634 5633 5632 5630 5629 5629 5628 5627
5723 5714 5708 5704 5702 5706 5707 5705 5701 5694 5693 5698 5691 5685 5681 5679 5673 5674 5673 5670 5667 5666 5664 5663 5662 5661 5660 5658 5656 5654 5652 5648 5644 5640 5638 5636 5634 5631 5629 5628 5627 5625 5624 5623
5715 5716 5711 5703 5700 5706 5717 5718 5715 5704 5698 5710 5703 5694 5688 5681 5675 5679 5680 5676 5673 5671 5669 5668 5667 5666 5664 5661 5659 5657 5653 5650 5645 5641 5638 5636 5634 5631 5628 5626 5624 5623 5622 5621
5713 5711 5709 5707 5706 5720 5726 5719 5713 5697 5714 5720 5712 5705 5696 5690 5691 5689 5684 5680 5677 5675 5673 5671 5670 5668 5666 5664 5662 5659 5656 5651 5646 5642 5639 5636 5634 5631 5628 5626 5624 5623 5621 5619
5725 5718 5714 5712 5708 5718 5726 5719 5716 5726 5729 5725 5719 5713 5704 5700 5696 5690 5687 5683 5681 5679 5676 5674 5673 5671 5669 5667 5665 5662 5656 5652 5648 5644 5641 5637 5634 5632 5629 5626 5625 5623 5621 5619
5731 5734 5733 5729 5734 5739 5736 5737 5739 5738 5732 5728 5723 5718 5710 5702 5697 5693 5690 5687 5684 5682 5680 5678 5675 5674 5672 5670 5667 5664 5659 5655 5651 5647 5643 5640 5636 5633 5630 5628 5626 5624 5621 5619
5738 5734 5731 5733 5743 5742 5739 5741 5739 5737 5736 5733 5728 5721 5714 5707 5702 5697 5694 5691 5687 5685 5683 5681 5679 5677 5675 5672 5669 5666 5662 5658 5655 5651 5647 5643 5640 5636 5632 5628 5627 5624 5621 5619
5745 5732 5733 5737 5748 5744 5741 5743 5742 5738 5736 5733 5729 5724 5718 5712 5706 5702 5698 5694 5691 5688 5686 5683 5681 5679 5677 5675 5672 5669 5665 5662 5659 5655 5651 5647 5642 5638 5634 5630 5625 5623 5618 5615
5749 5743 5741 5747 5760 5755 5755 5755 5749 5741 5736 5734 5729 5724 5720 5715 5710 5706 5702 5698 5694 5691 5689 5686 5683 5681 5680 5678 5675 5672 5668 5665 5663 5660 5655 5650 5646 5641 5638 5635 5630 5621 5619 5615